| time (UTC) | temp F | wind direction | speed MPH | gust MPH | rain 1hr in | rain 24hr in | rain mn in | humidity % | barometer mb |
| 20260506044548 | 34 | 138 | 0.0 | 0.0 | 0.00 | 0.00 | 0.00 | 92 | 1012.1 |
| 20260506043040 | 31 | 138 | 0.0 | 0.0 | 0.00 | 0.00 | 0.00 | 92 | 1011.9 |
| 20260506041548 | 30 | 138 | 0.0 | 0.0 | 0.00 | 0.00 | 0.00 | 93 | 1011.8 |
| 20260506040039 | 29 | 138 | 0.0 | 0.0 | 0.00 | 0.00 | 0.00 | 92 | 1011.7 |
| 20260506034534 | 28 | 138 | 0.0 | 0.0 | 0.00 | 0.00 | 0.00 | 93 | 1011.5 |
| 20260506033031 | 27 | 138 | 0.0 | 0.0 | 0.00 | 0.00 | 0.00 | 92 | 1011.4 |
| 20260506031531 | 26 | 138 | 0.0 | 0.0 | 0.00 | 0.00 | 0.00 | 92 | 1011.2 |
| 20260506030028 | 27 | 138 | 0.0 | 0.0 | 0.00 | 0.00 | 0.00 | 92 | 1011.2 |
| 20260506024527 | 27 | 138 | 0.0 | 0.0 | 0.00 | 0.00 | 0.00 | 92 | 1011.0 |
| 20260506023022 | 27 | 138 | 0.0 | 0.0 | 0.00 | 0.00 | 0.00 | 92 | 1011.0 |
| 20260506021518 | 28 | 138 | 0.0 | 0.0 | 0.00 | 0.00 | 0.00 | 92 | 1010.9 |
| 20260506020016 | 28 | 138 | 0.0 | 0.0 | 0.00 | 0.00 | 0.00 | 92 | 1010.6 |
| 20260506014515 | 28 | 138 | 0.0 | 0.0 | 0.00 | 0.00 | 0.00 | 92 | 1010.6 |
| 20260506013014 | 29 | 138 | 0.0 | 0.0 | 0.00 | 0.00 | 0.00 | 92 | 1010.6 |
| 20260506011525 | 29 | 138 | 0.0 | 0.0 | 0.00 | 0.00 | 0.00 | 92 | 1010.5 |
| 20260506010005 | 29 | 138 | 0.0 | 0.0 | 0.00 | 0.00 | 0.00 | 92 | 1010.3 |
| 20260506004511 | 30 | 138 | 0.0 | 0.0 | 0.00 | 0.00 | 0.00 | 92 | 1010.2 |
| 20260506003002 | 30 | 138 | 0.0 | 0.0 | 0.00 | 0.00 | 0.00 | 92 | 1010.1 |
| 20260506001601 | 30 | 138 | 0.0 | 0.0 | 0.00 | 0.00 | 0.00 | 91 | 1010.0 |
| 20260506000100 | 30 | 138 | 0.0 | 0.0 | 0.00 | 0.00 | 0.00 | 91 | 1009.9 |
| 20260505234554 | 31 | 138 | 0.0 | 0.0 | 0.00 | 0.00 | 0.00 | 91 | 1009.8 |
| 20260505233051 | 32 | 138 | 0.0 | 0.0 | 0.00 | 0.00 | 0.00 | 91 | 1009.6 |
| 20260505231549 | 32 | 138 | 0.0 | 0.0 | 0.00 | 0.00 | 0.00 | 91 | 1009.6 |
| 20260505230046 | 33 | 138 | 0.0 | 2.0 | 0.00 | 0.00 | 0.00 | 90 | 1009.4 |
| 20260505224542 | 33 | 138 | 0.0 | 2.0 | 0.00 | 0.00 | 0.00 | 90 | 1009.5 |
| 20260505223039 | 34 | 138 | 0.0 | 0.0 | 0.00 | 0.00 | 0.00 | 90 | 1009.4 |
| 20260505221541 | 34 | 138 | 0.0 | 0.0 | 0.00 | 0.00 | 0.00 | 89 | 1009.2 |
| 20260505220051 | 34 | 138 | 0.0 | 0.0 | 0.00 | 0.00 | 0.00 | 88 | 1009.2 |
| 20260505214533 | 35 | 138 | 0.0 | 2.0 | 0.00 | 0.00 | 0.00 | 87 | 1009.2 |
| 20260505213031 | 37 | 138 | 0.0 | 0.0 | 0.00 | 0.00 | 0.00 | 86 | 1009.0 |
| 20260505211524 | 38 | 138 | 0.0 | 0.0 | 0.00 | 0.00 | 0.00 | 85 | 1008.9 |
| 20260505210020 | 39 | 161 | 1.0 | 5.0 | 0.00 | 0.00 | 0.00 | 84 | 1008.9 |
| 20260505204519 | 39 | 161 | 0.0 | 0.0 | 0.00 | 0.00 | 0.00 | 83 | 1008.7 |
| 20260505203016 | 40 | 161 | 0.0 | 0.0 | 0.00 | 0.00 | 0.00 | 82 | 1008.5 |
| 20260505201517 | 40 | 161 | 0.0 | 0.0 | 0.00 | 0.00 | 0.00 | 80 | 1008.3 |
| 20260505200010 | 42 | 113 | 0.0 | 0.0 | 0.00 | 0.00 | 0.00 | 77 | 1008.3 |
| 20260505194518 | 43 | 113 | 0.0 | 2.0 | 0.00 | 0.00 | 0.00 | 75 | 1008.1 |
| 20260505193009 | 43 | 83 | 1.0 | 2.0 | 0.00 | 0.00 | 0.00 | 74 | 1007.9 |
| 20260505191506 | 43 | 82 | 1.0 | 3.0 | 0.00 | 0.00 | 0.00 | 71 | 1007.8 |
| 20260505190005 | 44 | 83 | 1.0 | 3.0 | 0.00 | 0.00 | 0.00 | 70 | 1007.6 |
| 20260505184502 | 44 | 83 | 0.0 | 6.0 | 0.00 | 0.00 | 0.00 | 70 | 1007.5 |
| 20260505183108 | 45 | 83 | 3.0 | 5.0 | 0.00 | 0.00 | 0.00 | 68 | 1007.3 |
| 20260505181610 | 46 | 71 | 3.0 | 6.0 | 0.00 | 0.00 | 0.00 | 65 | 1007.1 |
| 20260505180056 | 46 | 50 | 4.0 | 6.0 | 0.00 | 0.00 | 0.00 | 59 | 1007.0 |
| 20260505174556 | 47 | 350 | 4.0 | 8.0 | 0.00 | 0.00 | 0.00 | 46 | 1006.9 |
| 20260505173053 | 47 | 32 | 6.0 | 12.0 | 0.00 | 0.00 | 0.00 | 44 | 1006.7 |
| 20260505171552 | 48 | 314 | 9.0 | 14.0 | 0.00 | 0.00 | 0.00 | 40 | 1006.6 |
| 20260505170050 | 48 | 243 | 8.0 | 13.0 | 0.00 | 0.00 | 0.00 | 40 | 1006.4 |
| 20260505164558 | 49 | 275 | 9.0 | 15.0 | 0.00 | 0.00 | 0.00 | 38 | 1006.3 |
| 20260505163048 | 49 | 307 | 6.0 | 11.0 | 0.00 | 0.00 | 0.00 | 41 | 1006.3 |
| 20260505161556 | 49 | 269 | 7.0 | 14.0 | 0.00 | 0.00 | 0.00 | 38 | 1006.3 |
| 20260505153050 | 49 | 259 | 7.0 | 14.0 | 0.00 | 0.00 | 0.00 | 38 | 1006.1 |
| 20260505151542 | 49 | 269 | 9.0 | 14.0 | 0.00 | 0.00 | 0.00 | 39 | 1006.1 |
| 20260505124535 | 50 | 268 | 12.0 | 21.0 | 0.00 | 0.00 | 0.00 | 37 | 1005.5 |
| 20260505123026 | 49 | 261 | 10.0 | 16.0 | 0.00 | 0.00 | 0.00 | 36 | 1005.5 |
| 20260505121523 | 50 | 263 | 11.0 | 18.0 | 0.00 | 0.00 | 0.00 | 34 | 1005.6 |
| 20260505120023 | 48 | 267 | 11.0 | 14.0 | 0.00 | 0.00 | 0.00 | 40 | 1005.4 |
| 20260505114517 | 49 | 265 | 14.0 | 20.0 | 0.00 | 0.00 | 0.00 | 39 | 1005.4 |
| 20260505113015 | 49 | 292 | 10.0 | 18.0 | 0.00 | 0.00 | 0.00 | 42 | 1005.3 |
| 20260505111511 | 49 | 306 | 11.0 | 20.0 | 0.00 | 0.00 | 0.00 | 42 | 1005.4 |
| 20260505101556 | 48 | 266 | 10.0 | 19.0 | 0.00 | 0.00 | 0.00 | 43 | 1005.1 |
| 20260505100055 | 49 | 237 | 10.0 | 18.0 | 0.00 | 0.00 | 0.00 | 47 | 1005.2 |
| 20260505094553 | 47 | 260 | 12.0 | 18.0 | 0.00 | 0.00 | 0.00 | 45 | 1005.1 |
| 20260505093057 | 48 | 271 | 10.0 | 18.0 | 0.00 | 0.00 | 0.00 | 50 | 1005.0 |
| 20260505091550 | 47 | 236 | 9.0 | 16.0 | 0.00 | 0.00 | 0.00 | 53 | 1004.9 |
| 20260505090049 | 47 | 242 | 12.0 | 20.0 | 0.00 | 0.00 | 0.00 | 56 | 1004.9 |
| 20260505084553 | 46 | 279 | 15.0 | 20.0 | 0.00 | 0.00 | 0.00 | 56 | 1004.9 |
| 20260505083051 | 46 | 254 | 10.0 | 17.0 | 0.00 | 0.00 | 0.00 | 61 | 1004.7 |
| 20260505081550 | 46 | 273 | 10.0 | 17.0 | 0.00 | 0.00 | 0.00 | 65 | 1004.6 |
| 20260505080044 | 45 | 255 | 10.0 | 18.0 | 0.00 | 0.00 | 0.00 | 66 | 1004.5 |
| 20260505074542 | 45 | 261 | 6.0 | 16.0 | 0.00 | 0.01 | 0.00 | 69 | 1004.4 |
| 20260505073041 | 44 | 248 | 6.0 | 17.0 | 0.00 | 0.01 | 0.00 | 71 | 1004.4 |
| 20260505071541 | 44 | 269 | 9.0 | 16.0 | 0.00 | 0.01 | 0.00 | 72 | 1004.2 |
| 20260505070044 | 44 | 265 | 9.0 | 15.0 | 0.00 | 0.01 | 0.00 | 75 | 1004.0 |
| 20260505064538 | 44 | 261 | 8.0 | 14.0 | 0.00 | 0.02 | 0.00 | 74 | 1003.9 |
| 20260505063038 | 44 | 254 | 9.0 | 15.0 | 0.00 | 0.02 | 0.00 | 73 | 1003.8 |
| 20260505061535 | 43 | 268 | 8.0 | 14.0 | 0.00 | 0.02 | 0.00 | 74 | 1003.7 |
| 20260505060037 | 44 | 268 | 11.0 | 16.0 | 0.00 | 0.02 | 0.00 | 74 | 1003.6 |